Hourly Weather Roundup
Issued by NWS Central Illinois

Home | Current Version | Previous Version | Text Only | Print | Product List | Glossary On
Versions: 1 2 3 4 5 6 7 8 9 10 11 12 13 14 15 16 17 18 19 20 21 22 23 24 25 26 27 28 29 30 31 32 33 34 35 36 37 38 39 40 41 42 43 44 45 46 47 48 49 50
000
NZUS43 KILX 212010
HWRILX

AREA WEATHER ROUNDUP
NATIONAL WEATHER SERVICE, LINCOLN IL
300 PM CDT THU AUG 21 2014


CITY           SKY/WX    TMP DP  RH WIND       PRES   REMARKS
BLOOMINGTON    PTSUNNY   85  74  69 SW12      29.97F HX  92
CHAMPAIGN      PTSUNNY   87  76  69 S13       29.97F HX  97
DECATUR        PTSUNNY   88  76  67 SW14      29.96F HX  99
FLORA          MOSUNNY   88  75  66 S8        29.99F HX  98
GALESBURG      CLOUDY    88  75  65 CALM      29.94F HX  97
JACKSONVILLE   PTSUNNY   91  77  63 SW7       29.94F HX 105
LACON          CLOUDY    86  73  65 W7        29.94S HX  92
LAWRENCEVILLE  MOSUNNY   90  77  65 S8        30.00F HX 103
LITCHFIELD     PTSUNNY   85  77  76 S13       29.97F HX  96
$$


CITY           SKY/WX    TMP DP  RH WIND       PRES   REMARKS
LINCOLN        PTSUNNY   89  74  62 SW6       29.92F HX  97
MACOMB         PTSUNNY   86  74  68 CALM      29.96F HX  94
MATTOON        CLOUDY    86  75  69 S10       29.98F HX  95
MT CARMEL AP   MOSUNNY   91  75  59 SW7       30.00F HX 102
OLNEY-NOBLE AP PTSUNNY   88  75  66 S5        30.00F HX  97
PARIS          PTSUNNY   86  78  75 S8        29.99F HX  99
PEORIA         CLOUDY    85  73  67 SW8       29.95S HX  91
PONTIAC        CLOUDY    88  75  66 SW8       29.94F HX  97
RANTOUL        PTSUNNY   88  74  62 SW12      29.97F HX  96
ROBINSON       MOSUNNY   88  77  69 S8        30.00F HX 100
SPRINGFIELD    PTSUNNY   87  75  67 SW8       29.95F HX  96
TAYLORVILLE    PTSUNNY   84  75  74 SW10      29.96F HX  92
$$

...REGIONAL REPORTS...


CITY           SKY/WX    TMP DP  RH WIND       PRES   REMARKS
CHICAGO O`HARE CLOUDY    78  69  73 CALM      29.95F HX  80
KANKAKEE       PTSUNNY   85  76  75 S7        29.95F HX  94
MOLINE         CLOUDY    83  69  62 CALM      29.91F HX  86
MOUNT VERNON   PTSUNNY   90  75  62 S10       30.00F HX 100
PITTSFIELD     MOSUNNY   92  75  57 SW10      29.94F HX 102
QUINCY         MOSUNNY   90  74  59 SW10      29.93S HX  99
ROCKFORD       TSTM      75  72  90 E3        29.97R
$$


CITY           SKY/WX    TMP DP  RH WIND       PRES   REMARKS
BURLINGTON     PTSUNNY   85  74  69 NW3       29.92F HX  92
CEDAR RAPIDS   LGT RAIN  75  75 100 S9        29.89R FOG
DES MOINES     PTSUNNY   85  73  67 S12       29.85F HX  91
KIRKSVILLE     MOSUNNY   91  75  59 VRB7      29.93F HX 101
OTTUMWA        CLOUDY    83  73  72 S7        29.88F HX  89
ST LOUIS       PTSUNNY   95  74  50 S12       29.96  HX 105
$$


CITY           SKY/WX    TMP DP  RH WIND       PRES   REMARKS
TERRE HAUTE      N/A     87  76  69 S8        29.99F HX  97
EVANSVILLE     SUNNY     92  71  50 S9        30.02F HX  98
INDIANAPOLIS   PTSUNNY   85  72  65 S10       30.00F HX  91
LAFAYETTE      PTSUNNY   83  74  74 S10       29.96F HX  89
MADISON        CLOUDY    77  71  82 S15G21    29.90F
MILWAUKEE      CLOUDY    72  69  90 CALM      29.95R
$$





USA.gov is the U.S. government's official web portal to all federal, state and local government web resources and services.